Commit Graph

57 Commits

Author SHA1 Message Date
velz
061958c7c5 FIX_INTERNAL_API_CALL_HEADERS 2025-12-15 15:16:28 +05:30
velz
6e0889b67c FIX_MINOR 2025-12-10 16:47:58 +05:30
velz
eaac7815cf FIX_DB_SSL_ISSUE 2025-12-09 10:01:17 +05:30
velz
b39108d46f FIX_DB_SSL 2025-12-08 15:08:10 +05:30
velz
2430c18ba3 Merge remote-tracking branch 'origin/dev' into dev 2025-12-08 13:10:43 +05:30
velz
574d298d9a FEAT_DB_SSL_ENABLED 2025-12-08 13:10:33 +05:30
e1def8e953 FEAT_COPY_POLICY 2025-12-06 10:17:35 +05:30
42a1d53b01 App signature added in all rest api 2025-12-02 17:53:11 +05:30
bc1f91acea App signature added in all rest api 2025-12-02 17:51:08 +05:30
3d36d8d88e App signature added in all rest api 2025-12-02 17:16:35 +05:30
e5a4f978d2 GWM : app signature and relationship string in getEmployeePolicy API 2025-12-01 11:24:24 +05:30
933dfb2f5a GWM : app signature and relationship string in getEmployeePolicy API 2025-12-01 11:22:55 +05:30
1143753f36 FIX_LIVE_ISSUE_UNDIFINED_ARRAY_KEY_I_AGREED_FOR_ADDON 2025-11-26 11:49:06 +05:30
velz
30ffd7648c FIX_OPTIONS_ROUTE_ADDED4_CORS 2025-11-25 15:05:21 +05:30
velz
69fe539a3d FEAT_CORS 2025-11-25 11:04:13 +05:30
96c825197b FEAT_HR_SAMPL_FILE_DOWNLOAD 2025-11-13 18:14:19 +05:30
d38e253fbc FIX_HR_SMPL_DOWNLOAD_LINK 2025-11-13 16:28:34 +05:30
a9dae0ea76 FEAT_CHECK_PASS 2025-11-10 14:37:37 +05:30
c473943c97 FEAT_PASSWORD_LOGIN_API 2025-11-10 14:14:26 +05:30
13c9ece323 FEAT_EMP_SELF_MOBILE_NUMBER_UPDATE_API 2025-11-05 11:32:55 +05:30
vadivelJ96
f05c3ee6f4 CHANGE_Mail_template_filename_issue - VADIVEL J 2025-10-14 2025-10-14 14:18:39 +05:30
venba-Inspriron-3558
f6c6c37a7a FIX_75. The system should allow the same HR contact to be linked with different corporates, instead of restricting them to just one. 2025-10-10 18:58:55 +05:30
venba-Inspriron-3558
3ba4a65497 FIX_Client short name - auto suggest 2025-10-09 10:06:10 +05:30
7bb6b38087 GWM : sms integration 2025-10-08 10:22:32 +05:30
vadivelJ96
537cdf834e CHANGE_Pre_app_having_post_branch_id - VADIVEL J 2025-09-03 2025-10-03 18:18:13 +05:30
vadivelJ96
8a356d3af9 CHANGE_logo_fix_final - VADIVEL J 2025-09-17 2025-09-17 11:06:46 +05:30
vadivelJ96
af8be11774 CHANGE_logo_fix_final - VADIVEL J 2025-09-16 2025-09-16 17:38:04 +05:30
vadivelJ96
9ffc14f946 Merge branch 'dev' of bitbucket.org:jubilian/nhance-enrollment into dev 2025-09-16 16:33:44 +05:30
vadivelJ96
51c67f07c9 CHANGE_Fixing_logo_in_clients by vadivel 2025-09-16 16:32:44 +05:30
06b3d4f0e8 CHANGES_HR file upload changes : GWM 2025-08-20 09:42:28 +05:30
45afb0ec90 CHANGE_ HR file upload rest api : GWM 2025-08-18 17:21:03 +05:30
vadivelJ96
0d1b2d4a91 Merge branch 'dev' of bitbucket.org:jubilian/nhance-enrollment into dev 2025-08-04 15:00:36 +05:30
vadivelJ96
4381e48a0c CHANGES- claims related changes Except UI - Vadivel j 2025-08-04 2025-08-04 15:00:26 +05:30
7e2a4c5aeb CHANGE_CLIENT_DELETE_DEMO_CLIENT_WIPE : RV 2025-08-02 14:35:59 +05:30
4110880828 FEAT_LOG_HR_ACTIVITY : RV 2025-07-15 15:04:43 +05:30
6b3df8e8dc FEAT_REMOVE_API_LEVEL_CONTEACT : RV 2025-07-15 11:12:58 +05:30
d73cd89f8f FIX_POLICY_COUNT : RV 2025-07-10 11:32:18 +05:30
9273639703 CHANGE_ADD_INSURER_NAME_HR : RV 2025-07-02 10:28:30 +05:30
b7c701f35a CHANGE_MPIN : RV 2025-07-01 14:12:06 +05:30
a61c17efa4 CHANGES_ in hr api's : GWM 2025-06-16 17:28:22 +05:30
fb0426a308 CHANGES_ in hr api's : GWM 2025-06-16 17:27:57 +05:30
b0de0e9d84 HR api change : GWM 2025-06-16 12:12:32 +05:30
e75c769801 GWM : add dependent api 2025-06-13 09:54:03 +05:30
cce1bad6a2 FIX_CALCULATE_PREMIUM : RV 2025-05-13 15:00:09 +05:30
91a2240c6c CHANGE_ADD_KEY_TO_POLICY : RV 2025-05-06 12:37:20 +05:30
8b333ea1d5 MERGE_CODE_MERGE : RV 2025-04-23 10:36:33 +05:30
ca74a7b36e CHNAGE_IS_PAY_BY_EMP_IN_WEB : RV 2025-04-23 10:32:54 +05:30
Srinivas-Saravanan
1860d57d3e FIX_EXCEL_EXTRA_SPACE 2025-04-22 15:48:11 +05:30
051c0ab51f CHANGE_ADD_LOG_CRONE_FUNCTIONS : RV 2025-04-04 10:34:53 +05:30
Srinivas-Saravanan
eb0e0bc7d9 TEMP_FIX_REST_CONTROLLER 2025-03-29 16:16:18 +05:30